Retour au catalogue

CZ-6A DEB

ActifSSO
NORAD 54493·DEBRIS·🇨🇳 China

Lancé Nov 11, 2022 depuis Taiyuan Satellite Launch Center

Loading…

Prochains Passages (prochaines 24 heures)

TLE

FraisSource: Space-Track

Époque: Sep 14, 2026, 08:06 UTC

1 54493U 22151HV  26257.33774103  .00000976  00000-0  73186-3 0  9996
2 54493  98.9893 219.1269 0182523 218.6119 140.1871 13.89326678193583

Suivez CZ-6A DEB en temps réel avec AllMySat

Download on the App Store